Time,TemperatureF,DewpointF,PressureIn,WindDirection,WindDirectionDegrees,WindSpeedMPH,WindSpeedGustMPH,Humidity,HourlyPrecipIn,Conditions,Clouds,dailyrainin,SoftwareType,DateUTC
2013-03-02 00:01:00,24.0,19.0,30.14,WNW,292,0.0,2.0,82,0.00,,,0.00,,2013-03-02 06:01:00,
2013-03-02 00:11:00,24.0,19.0,30.14,WNW,292,0.0,2.0,82,0.00,,,0.00,,2013-03-02 06:11:00,
2013-03-02 00:21:00,24.0,20.0,30.14,WNW,301,0.0,4.0,83,0.00,,,0.00,,2013-03-02 06:21:00,
2013-03-02 00:31:00,23.0,19.0,30.14,WNW,301,0.0,4.0,83,0.00,,,0.00,,2013-03-02 06:31:00,
2013-03-02 00:41:00,23.0,19.0,30.14,WNW,301,0.0,4.0,83,0.00,,,0.00,,2013-03-02 06:41:00,
2013-03-02 00:52:00,23.0,19.0,30.14,WNW,301,0.0,2.0,84,0.00,,,0.00,,2013-03-02 06:52:00,
2013-03-02 01:01:00,23.0,19.0,30.14,WNW,301,0.0,1.0,84,0.00,,,0.00,,2013-03-02 07:01:00,
2013-03-02 01:11:00,22.0,18.0,30.14,WNW,295,2.0,4.0,84,0.00,,,0.00,,2013-03-02 07:11:00,
2013-03-02 01:21:00,22.0,18.0,30.14,WNW,295,2.0,4.0,84,0.00,,,0.00,,2013-03-02 07:21:00,
2013-03-02 01:32:00,22.0,18.0,30.14,WNW,294,3.0,4.0,84,0.00,,,0.00,,2013-03-02 07:32:00,
2013-03-02 01:42:00,22.0,18.0,30.14,WNW,294,3.0,4.0,84,0.00,,,0.00,,2013-03-02 07:42:00,
2013-03-02 01:52:00,21.0,17.0,30.14,WNW,291,0.0,5.0,83,0.00,,,0.00,,2013-03-02 07:52:00,
2013-03-02 02:01:00,21.0,17.0,30.14,WNW,291,1.0,3.0,85,0.00,,,0.00,,2013-03-02 08:01:00,
2013-03-02 02:11:00,21.0,17.0,30.14,WNW,291,1.0,3.0,85,0.00,,,0.00,,2013-03-02 08:11:00,
2013-03-02 02:21:00,21.0,17.0,30.13,WNW,296,1.0,6.0,86,0.00,,,0.00,,2013-03-02 08:21:00,
2013-03-02 02:32:00,20.0,16.0,30.12,West,273,0.0,5.0,86,0.00,,,0.00,,2013-03-02 08:32:00,
2013-03-02 02:42:00,20.0,16.0,30.12,West,273,0.0,5.0,86,0.00,,,0.00,,2013-03-02 08:42:00,
2013-03-02 02:52:00,20.0,17.0,30.11,West,273,0.0,3.0,87,0.00,,,0.00,,2013-03-02 08:52:00,
2013-03-02 03:01:00,20.0,17.0,30.11,West,273,0.0,3.0,87,0.00,,,0.00,,2013-03-02 09:01:00,
2013-03-02 03:11:00,18.0,15.0,30.11,NNE,28,0.0,3.0,88,0.00,,,0.00,,2013-03-02 09:11:00,
2013-03-02 03:21:00,18.0,15.0,30.11,NNE,28,0.0,3.0,88,0.00,,,0.00,,2013-03-02 09:21:00,
2013-03-02 03:32:00,18.0,15.0,30.11,WNW,300,0.0,3.0,88,0.00,,,0.00,,2013-03-02 09:32:00,
2013-03-02 03:42:00,18.0,15.0,30.11,WNW,300,0.0,3.0,88,0.00,,,0.00,,2013-03-02 09:42:00,
2013-03-02 03:52:00,17.0,14.0,30.11,NW,316,0.0,2.0,88,0.00,,,0.00,,2013-03-02 09:52:00,
2013-03-02 04:01:00,16.0,13.0,30.11,North,355,0.0,3.0,88,0.00,,,0.00,,2013-03-02 10:01:00,
2013-03-02 04:15:00,16.0,13.0,30.11,North,355,0.0,3.0,88,0.00,,,0.00,,2013-03-02 10:15:00,
2013-03-02 04:22:00,16.0,13.0,30.11,North,355,0.0,3.0,88,0.00,,,0.00,,2013-03-02 10:22:00,
2013-03-02 04:31:00,16.0,13.0,30.11,NNE,18,0.0,2.0,88,0.00,,,0.00,,2013-03-02 10:31:00,
2013-03-02 04:42:00,16.0,13.0,30.11,NNE,18,0.0,2.0,88,0.00,,,0.00,,2013-03-02 10:42:00,
2013-03-02 04:52:00,15.0,12.0,30.11,North,9,0.0,4.0,87,0.00,,,0.00,,2013-03-02 10:52:00,
2013-03-02 05:01:00,15.0,12.0,30.11,NNE,33,0.0,5.0,86,0.00,,,0.00,,2013-03-02 11:01:00,
2013-03-02 05:11:00,15.0,12.0,30.11,NNE,33,0.0,5.0,86,0.00,,,0.00,,2013-03-02 11:11:00,
2013-03-02 05:21:00,15.0,12.0,30.12,NNE,19,1.0,6.0,86,0.00,,,0.00,,2013-03-02 11:21:00,
2013-03-02 05:32:00,14.0,10.0,30.12,North,350,2.0,3.0,85,0.00,,,0.00,,2013-03-02 11:32:00,
2013-03-02 05:42:00,14.0,10.0,30.12,North,350,2.0,3.0,85,0.00,,,0.00,,2013-03-02 11:42:00,
2013-03-02 05:52:00,14.0,10.0,30.11,WNW,296,0.0,3.0,85,0.00,,,0.00,,2013-03-02 11:52:00,
2013-03-02 06:02:00,14.0,11.0,30.12,NE,44,2.0,3.0,86,0.00,,,0.00,,2013-03-02 12:02:00,
2013-03-02 06:11:00,14.0,11.0,30.12,NE,44,2.0,3.0,86,0.00,,,0.00,,2013-03-02 12:11:00,
2013-03-02 06:21:00,14.0,10.0,30.12,NNE,16,2.0,4.0,85,0.00,,,0.00,,2013-03-02 12:21:00,
2013-03-02 06:32:00,13.0,10.0,30.13,NNE,15,0.0,3.0,86,0.00,,,0.00,,2013-03-02 12:32:00,
2013-03-02 06:43:00,13.0,10.0,30.13,NNE,15,0.0,3.0,86,0.00,,,0.00,,2013-03-02 12:43:00,
2013-03-02 06:53:00,13.0,10.0,30.13,NNE,13,0.0,1.0,86,0.00,,,0.00,,2013-03-02 12:53:00,
2013-03-02 07:01:00,13.0,10.0,30.14,NNE,13,0.0,3.0,86,0.00,,,0.00,,2013-03-02 13:01:00,
2013-03-02 07:11:00,13.0,10.0,30.14,NNE,13,0.0,3.0,86,0.00,,,0.00,,2013-03-02 13:11:00,
2013-03-02 07:22:00,13.0,10.0,30.14,North,5,0.0,2.0,86,0.00,,,0.00,,2013-03-02 13:22:00,
2013-03-02 07:32:00,13.0,10.0,30.14,North,5,0.0,2.0,87,0.00,,,0.00,,2013-03-02 13:32:00,
2013-03-02 07:42:00,13.0,10.0,30.14,North,5,0.0,2.0,87,0.00,,,0.00,,2013-03-02 13:42:00,
2013-03-02 07:52:00,13.0,10.0,30.14,North,5,0.0,1.0,86,0.00,,,0.00,,2013-03-02 13:52:00,
2013-03-02 08:01:00,14.0,10.0,30.14,North,5,0.0,3.0,85,0.00,,,0.00,,2013-03-02 14:01:00,
2013-03-02 08:11:00,14.0,10.0,30.14,North,5,0.0,3.0,85,0.00,,,0.00,,2013-03-02 14:11:00,
2013-03-02 08:21:00,15.0,11.0,30.15,NNW,335,0.0,2.0,84,0.00,,,0.00,,2013-03-02 14:21:00,
2013-03-02 08:32:00,17.0,12.0,30.14,NNE,22,0.0,6.0,82,0.00,,,0.00,,2013-03-02 14:32:00,
2013-03-02 08:42:00,17.0,12.0,30.14,NNE,22,0.0,6.0,82,0.00,,,0.00,,2013-03-02 14:42:00,
2013-03-02 08:52:00,18.0,13.0,30.14,NNE,22,0.0,6.0,80,0.00,,,0.00,,2013-03-02 14:52:00,
2013-03-02 09:02:00,19.0,13.0,30.15,NE,36,1.0,5.0,78,0.00,,,0.00,,2013-03-02 15:02:00,
2013-03-02 09:11:00,19.0,13.0,30.15,NE,36,1.0,5.0,78,0.00,,,0.00,,2013-03-02 15:11:00,
2013-03-02 09:21:00,20.0,14.0,30.15,NNE,14,1.0,4.0,77,0.00,,,0.00,,2013-03-02 15:21:00,
2013-03-02 09:32:00,20.0,14.0,30.15,NNE,16,1.0,5.0,77,0.00,,,0.00,,2013-03-02 15:32:00,
2013-03-02 09:42:00,20.0,14.0,30.15,NNE,16,1.0,5.0,77,0.00,,,0.00,,2013-03-02 15:42:00,
2013-03-02 09:52:00,21.0,15.0,30.15,NW,324,2.0,5.0,76,0.00,,,0.00,,2013-03-02 15:52:00,
2013-03-02 10:01:00,22.0,15.0,30.15,SW,230,1.0,8.0,75,0.00,,,0.00,,2013-03-02 16:01:00,
2013-03-02 10:11:00,22.0,15.0,30.15,SW,230,1.0,8.0,75,0.00,,,0.00,,2013-03-02 16:11:00,
2013-03-02 10:21:00,22.0,15.0,30.15,ENE,61,0.0,5.0,74,0.00,,,0.00,,2013-03-02 16:21:00,
2013-03-02 10:31:00,23.0,15.0,30.16,North,10,0.0,5.0,72,0.00,,,0.00,,2013-03-02 16:31:00,
2013-03-02 10:42:00,23.0,15.0,30.16,North,10,0.0,5.0,72,0.00,,,0.00,,2013-03-02 16:42:00,
2013-03-02 10:52:00,22.0,15.0,30.16,NNE,20,2.0,8.0,74,0.00,,,0.00,,2013-03-02 16:52:00,
2013-03-02 11:01:00,22.0,15.0,30.16,NNE,26,0.0,8.0,74,0.00,,,0.00,,2013-03-02 17:01:00,
2013-03-02 11:11:00,22.0,15.0,30.16,NNE,26,0.0,8.0,74,0.00,,,0.00,,2013-03-02 17:11:00,
2013-03-02 11:21:00,24.0,16.0,30.16,North,9,1.0,9.0,72,0.00,,,0.00,,2013-03-02 17:21:00,
2013-03-02 11:32:00,24.0,16.0,30.16,NNE,21,0.0,8.0,71,0.00,,,0.00,,2013-03-02 17:32:00,
2013-03-02 11:42:00,24.0,16.0,30.16,NNE,21,0.0,8.0,71,0.00,,,0.00,,2013-03-02 17:42:00,
2013-03-02 11:52:00,26.0,18.0,30.16,NNW,329,2.0,6.0,70,0.00,,,0.00,,2013-03-02 17:52:00,
2013-03-02 12:02:00,26.0,17.0,30.15,North,5,0.0,6.0,69,0.00,,,0.00,,2013-03-02 18:02:00,
2013-03-02 12:11:00,26.0,17.0,30.15,North,5,0.0,6.0,69,0.00,,,0.00,,2013-03-02 18:11:00,
2013-03-02 12:22:00,27.0,18.0,30.15,WNW,303,0.0,5.0,69,0.00,,,0.00,,2013-03-02 18:22:00,
2013-03-02 12:32:00,28.0,19.0,30.15,NNE,15,0.0,6.0,68,0.00,,,0.00,,2013-03-02 18:32:00,
2013-03-02 12:42:00,28.0,19.0,30.15,NNE,15,0.0,6.0,68,0.00,,,0.00,,2013-03-02 18:42:00,
2013-03-02 12:52:00,29.0,20.0,30.15,East,90,0.0,8.0,68,0.00,,,0.00,,2013-03-02 18:52:00,
2013-03-02 13:01:00,29.0,19.0,30.14,NNE,17,1.0,6.0,65,0.00,,,0.00,,2013-03-02 19:01:00,
2013-03-02 13:11:00,29.0,19.0,30.14,NNE,17,1.0,6.0,65,0.00,,,0.00,,2013-03-02 19:11:00,
2013-03-02 13:21:00,29.0,18.0,30.14,NNE,24,2.0,6.0,64,0.00,,,0.00,,2013-03-02 19:21:00,
2013-03-02 13:32:00,29.0,18.0,30.13,NNE,19,2.0,7.0,63,0.00,,,0.00,,2013-03-02 19:32:00,
2013-03-02 13:42:00,29.0,18.0,30.13,NNE,19,2.0,7.0,63,0.00,,,0.00,,2013-03-02 19:42:00,
2013-03-02 13:52:00,30.0,19.0,30.13,NE,38,2.0,6.0,64,0.00,,,0.00,,2013-03-02 19:52:00,
2013-03-02 14:01:00,29.0,19.0,30.13,WNW,294,6.0,6.0,65,0.00,,,0.00,,2013-03-02 20:01:00,
2013-03-02 14:11:00,29.0,19.0,30.13,WNW,294,6.0,6.0,65,0.00,,,0.00,,2013-03-02 20:11:00,
2013-03-02 14:22:00,29.0,18.0,30.12,NW,318,2.0,7.0,64,0.00,,,0.00,,2013-03-02 20:22:00,
2013-03-02 14:32:00,29.0,18.0,30.12,West,280,2.0,7.0,63,0.00,,,0.00,,2013-03-02 20:32:00,
2013-03-02 14:42:00,29.0,18.0,30.12,West,280,2.0,7.0,63,0.00,,,0.00,,2013-03-02 20:42:00,
2013-03-02 14:52:00,29.0,18.0,30.12,WNW,288,3.0,8.0,63,0.00,,,0.00,,2013-03-02 20:52:00,
2013-03-02 15:02:00,29.0,18.0,30.12,NNW,335,0.0,6.0,62,0.00,,,0.00,,2013-03-02 21:02:00,
2013-03-02 15:11:00,29.0,18.0,30.12,NNW,335,0.0,6.0,62,0.00,,,0.00,,2013-03-02 21:11:00,
2013-03-02 15:22:00,29.0,18.0,30.11,North,355,0.0,3.0,62,0.00,,,0.00,,2013-03-02 21:22:00,
2013-03-02 15:32:00,27.0,16.0,30.11,NNE,24,4.0,8.0,63,0.00,,,0.00,,2013-03-02 21:32:00,
2013-03-02 15:42:00,27.0,16.0,30.11,NNE,24,4.0,8.0,63,0.00,,,0.00,,2013-03-02 21:42:00,
2013-03-02 15:52:00,27.0,16.0,30.11,NNE,21,3.0,7.0,63,0.00,,,0.00,,2013-03-02 21:52:00,
2013-03-02 16:01:00,27.0,16.0,30.11,NNE,24,2.0,7.0,64,0.00,,,0.00,,2013-03-02 22:01:00,
2013-03-02 16:11:00,27.0,16.0,30.11,NNE,24,2.0,7.0,64,0.00,,,0.00,,2013-03-02 22:11:00,
2013-03-02 16:22:00,27.0,16.0,30.11,NNE,22,1.0,5.0,63,0.00,,,0.00,,2013-03-02 22:22:00,
2013-03-02 16:32:00,27.0,16.0,30.11,NW,320,0.0,5.0,63,0.00,,,0.00,,2013-03-02 22:32:00,
2013-03-02 16:42:00,27.0,16.0,30.11,NW,320,0.0,5.0,63,0.00,,,0.00,,2013-03-02 22:42:00,
2013-03-02 16:52:00,27.0,17.0,30.11,NNE,23,0.0,4.0,65,0.00,,,0.00,,2013-03-02 22:52:00,
2013-03-02 17:01:00,27.0,16.0,30.11,NE,34,0.0,4.0,64,0.00,,,0.00,,2013-03-02 23:01:00,
2013-03-02 17:11:00,27.0,17.0,30.11,NNE,32,0.0,2.0,66,0.00,,,0.00,,2013-03-02 23:11:00,
2013-03-02 17:21:00,27.0,17.0,30.11,NNE,32,0.0,2.0,66,0.00,,,0.00,,2013-03-02 23:21:00,
2013-03-02 17:32:00,26.0,16.0,30.11,NNE,23,0.0,2.0,66,0.00,,,0.00,,2013-03-02 23:32:00,
2013-03-02 17:42:00,26.0,16.0,30.11,NNE,23,0.0,2.0,66,0.00,,,0.00,,2013-03-02 23:42:00,
2013-03-02 17:52:00,26.0,16.0,30.11,NNE,23,0.0,1.0,66,0.00,,,0.00,,2013-03-02 23:52:00,
2013-03-02 18:02:00,25.0,16.0,30.11,NNE,23,0.0,0.0,67,0.00,,,0.00,,2013-03-03 00:02:00,
2013-03-02 18:11:00,25.0,16.0,30.11,NNE,23,0.0,0.0,67,0.00,,,0.00,,2013-03-03 00:11:00,
2013-03-02 18:22:00,24.0,15.0,30.11,NNE,23,0.0,0.0,69,0.00,,,0.00,,2013-03-03 00:22:00,
2013-03-02 18:32:00,23.0,15.0,30.11,NNE,23,0.0,0.0,72,0.00,,,0.00,,2013-03-03 00:32:00,
2013-03-02 18:42:00,23.0,15.0,30.11,NNE,23,0.0,0.0,72,0.00,,,0.00,,2013-03-03 00:42:00,
2013-03-02 18:52:00,23.0,15.0,30.12,NNE,23,0.0,0.0,72,0.00,,,0.00,,2013-03-03 00:52:00,
2013-03-02 19:01:00,22.0,15.0,30.12,NNE,23,0.0,0.0,73,0.00,,,0.00,,2013-03-03 01:01:00,
2013-03-02 19:11:00,22.0,15.0,30.12,NNE,23,0.0,0.0,73,0.00,,,0.00,,2013-03-03 01:11:00,
2013-03-02 19:21:00,21.0,14.0,30.12,NNE,23,0.0,0.0,74,0.00,,,0.00,,2013-03-03 01:21:00,
2013-03-02 19:31:00,21.0,14.0,30.11,NNE,23,0.0,0.0,75,0.00,,,0.00,,2013-03-03 01:31:00,
2013-03-02 19:41:00,21.0,14.0,30.11,NNE,23,0.0,0.0,75,0.00,,,0.00,,2013-03-03 01:41:00,
2013-03-02 19:52:00,20.0,14.0,30.11,NNE,23,0.0,0.0,76,0.00,,,0.00,,2013-03-03 01:52:00,
2013-03-02 20:01:00,19.0,13.0,30.10,NNE,23,0.0,0.0,77,0.00,,,0.00,,2013-03-03 02:01:00,
2013-03-02 20:11:00,19.0,13.0,30.10,NNE,23,0.0,0.0,77,0.00,,,0.00,,2013-03-03 02:11:00,
2013-03-02 20:21:00,19.0,13.0,30.11,NNE,23,0.0,0.0,78,0.00,,,0.00,,2013-03-03 02:21:00,
2013-03-02 20:32:00,19.0,13.0,30.11,NNE,23,0.0,0.0,78,0.00,,,0.00,,2013-03-03 02:32:00,
2013-03-02 20:41:00,19.0,13.0,30.11,NNE,23,0.0,0.0,78,0.00,,,0.00,,2013-03-03 02:41:00,
2013-03-02 20:52:00,18.0,12.0,30.11,NNE,23,0.0,2.0,78,0.00,,,0.00,,2013-03-03 02:52:00,
2013-03-02 21:01:00,17.0,12.0,30.11,NNE,23,0.0,0.0,79,0.00,,,0.00,,2013-03-03 03:01:00,
2013-03-02 21:11:00,17.0,12.0,30.11,NNE,23,0.0,0.0,79,0.00,,,0.00,,2013-03-03 03:11:00,
2013-03-02 21:21:00,17.0,12.0,30.11,NNE,23,0.0,0.0,79,0.00,,,0.00,,2013-03-03 03:21:00,
2013-03-02 21:31:00,16.0,11.0,30.11,NNE,23,0.0,0.0,80,0.00,,,0.00,,2013-03-03 03:31:00,
2013-03-02 21:41:00,16.0,11.0,30.11,NNE,23,0.0,0.0,80,0.00,,,0.00,,2013-03-03 03:41:00,
2013-03-02 21:52:00,16.0,11.0,30.10,NNE,23,0.0,0.0,81,0.00,,,0.00,,2013-03-03 03:52:00,
2013-03-02 22:01:00,15.0,10.0,30.11,NNE,23,0.0,0.0,81,0.00,,,0.00,,2013-03-03 04:01:00,
2013-03-02 22:11:00,15.0,10.0,30.11,NNE,23,0.0,0.0,81,0.00,,,0.00,,2013-03-03 04:11:00,
2013-03-02 22:21:00,15.0,11.0,30.11,NNE,23,0.0,0.0,82,0.00,,,0.00,,2013-03-03 04:21:00,
2013-03-02 22:31:00,15.0,11.0,30.11,NNE,23,0.0,0.0,83,0.00,,,0.00,,2013-03-03 04:31:00,
2013-03-02 22:41:00,15.0,11.0,30.11,NNE,23,0.0,0.0,83,0.00,,,0.00,,2013-03-03 04:41:00,
2013-03-02 22:51:00,15.0,11.0,30.10,NNE,23,0.0,0.0,83,0.00,,,0.00,,2013-03-03 04:51:00,
2013-03-02 23:02:00,14.0,10.0,30.10,NNE,23,0.0,0.0,84,0.00,,,0.00,,2013-03-03 05:02:00,
2013-03-02 23:11:00,14.0,10.0,30.10,NNE,23,0.0,0.0,84,0.00,,,0.00,,2013-03-03 05:11:00,
2013-03-02 23:22:00,14.0,10.0,30.10,NNE,23,0.0,0.0,85,0.00,,,0.00,,2013-03-03 05:22:00,
2013-03-02 23:32:00,14.0,10.0,30.09,NNE,23,0.0,0.0,85,0.00,,,0.00,,2013-03-03 05:32:00,
2013-03-02 23:42:00,14.0,10.0,30.09,NNE,23,0.0,0.0,85,0.00,,,0.00,,2013-03-03 05:42:00,
2013-03-02 23:52:00,14.0,11.0,30.09,NNE,23,0.0,0.0,86,0.00,,,0.00,,2013-03-03 05:52:00,